Adana, Turkey

9:58 PM +03 on October 19, 2017 (GMT +0300)
Adana

Weather History for LTAF - November, 2013

Change the Weather History Date:

Sunday, November 10, 2013

  Actual Average Record
Temperature  
Mean Temperature 65 °F -  
Max Temperature 77 °F 67 °F 84 °F (2010)
Min Temperature 53 °F 46 °F 42 °F (2005)
Growing Degree Days 15 (Base 50)    
Moisture  
Dew Point 48 °F    
Average Humidity 57    
Maximum Humidity 82    
Minimum Humidity 33    
Precipitation  
Precipitation 0.00 in 0.13 in - ()
Sea Level Pressure  
Sea Level Pressure 30.00 in    
Wind  
Wind Speed 3 mph ()    
Max Wind Speed 9 mph    
Max Gust Speed -    
Visibility 6.2 miles    
Events      
Averages and records for this station are not official NWS values.
T = Trace of Precipitation, MM = Missing Value Source: Averaged Metar Reports

Daily Weather History Graph

Daily Weather History Graph

Search for Another Location

Airport or City:

Trip Planner

Search our weather history database for the weather conditions in past years. The results will help you decide how hot, cold, wet, or windy it might be!

Date:

Astronomy

Nov. 10, 2013 Rise Set
Actual Time 6:12 AM EET 4:32 PM EET
Civil Twilight 5:44 AM EET 5:00 PM EET
Nautical Twilight 5:13 AM EET 5:31 PM EET
Astronomical Twilight 4:42 AM EET 6:01 PM EET
Moon 12:15 PM EET (11/10) 11:44 PM EET (11/10)
Length of Visible Light 11h 15m
Length of Day
10h 20m
First Quarter, 52% of the Moon is Illuminated
Nov 10
First Quarter
Nov 17
Full
Nov 25
Last Quarter
Dec 3
New
Dec 9
First Quarter

Hourly Weather History & Observations

Time (EET) Temp. Dew Point Humidity Pressure Visibility Wind Dir Wind Speed Gust Speed Precip Events Conditions
12:20 AM 57.2 °F 46.4 °F 67% 29.98 in - Variable 2.3 mph - N/A   Clear
12:50 AM 53.6 °F 46.4 °F 77% 29.98 in - SSE 3.5 mph - N/A   Clear
1:20 AM 55.4 °F 48.2 °F 77% 29.98 in - SE 2.3 mph - N/A   Clear
1:50 AM 57.2 °F 48.2 °F 72% 29.98 in - Variable 2.3 mph - N/A   Clear
2:20 AM 55.4 °F 48.2 °F 77% 29.98 in - Calm Calm - N/A   Clear
2:50 AM 55.4 °F 48.2 °F 77% 29.98 in - Calm Calm - N/A   Clear
3:20 AM 53.6 °F 46.4 °F 77% 29.98 in - Calm Calm - N/A   Clear
3:50 AM 57.2 °F 48.2 °F 72% 29.98 in - NE 4.6 mph - N/A   Clear
4:20 AM 55.4 °F 46.4 °F 72% 29.98 in - Calm Calm - N/A   Clear
4:50 AM 55.4 °F 46.4 °F 72% 29.98 in - Variable 1.2 mph - N/A   Clear
5:20 AM 55.4 °F 46.4 °F 72% 29.98 in - Variable 1.2 mph - N/A   Clear
5:50 AM 55.4 °F 46.4 °F 72% 30.01 in - Calm Calm - N/A   Clear
6:20 AM 53.6 °F 48.2 °F 82% 30.01 in - WNW 1.2 mph - N/A   Clear
6:50 AM 55.4 °F 46.4 °F 72% 30.01 in - Variable 1.2 mph - N/A   Clear
7:20 AM 57.2 °F 46.4 °F 67% 30.01 in - NNE 2.3 mph - N/A   Clear
7:50 AM 60.8 °F 50.0 °F 68% 30.04 in 6.2 mi ENE 2.3 mph - N/A   Scattered Clouds
8:20 AM 64.4 °F 46.4 °F 52% 30.04 in 6.2 mi North 4.6 mph - N/A   Scattered Clouds
8:50 AM 69.8 °F 41.0 °F 35% 30.04 in 6.2 mi North 5.8 mph - N/A   Scattered Clouds
9:20 AM 71.6 °F 41.0 °F 33% 30.04 in 6.2 mi NNE 9.2 mph - N/A   Scattered Clouds
9:50 AM 71.6 °F 41.0 °F 33% 30.04 in 6.2 mi NNE 9.2 mph - N/A   Scattered Clouds
10:20 AM 73.4 °F 42.8 °F 33% 30.04 in 6.2 mi NNE 8.1 mph - N/A   Partly Cloudy
10:50 AM 75.2 °F 46.4 °F 36% 30.01 in 6.2 mi NNE 5.8 mph - N/A   Partly Cloudy
11:20 AM 75.2 °F 46.4 °F 36% 30.01 in 6.2 mi NE 4.6 mph - N/A   Partly Cloudy
11:50 AM 75.2 °F 48.2 °F 38% 30.01 in 6.2 mi East 6.9 mph - N/A   Partly Cloudy
12:20 PM 77.0 °F 48.2 °F 36% 29.98 in 6.2 mi NE 4.6 mph - N/A   Partly Cloudy
12:50 PM 77.0 °F 50.0 °F 39% 29.98 in 6.2 mi East 5.8 mph - N/A   Partly Cloudy
1:20 PM 77.0 °F 48.2 °F 36% 29.98 in 6.2 mi ENE 5.8 mph - N/A   Partly Cloudy
1:50 PM 77.0 °F 46.4 °F 34% 29.98 in 6.2 mi East 3.5 mph - N/A   Partly Cloudy
2:20 PM 77.0 °F 46.4 °F 34% 29.98 in 6.2 mi Variable 1.2 mph - N/A   Partly Cloudy
2:50 PM 77.0 °F 46.4 °F 34% 29.98 in 6.2 mi ENE 6.9 mph - N/A   Partly Cloudy
3:20 PM 77.0 °F 48.2 °F 36% 29.95 in 6.2 mi NNE 4.6 mph - N/A   Partly Cloudy
3:50 PM 75.2 °F 50.0 °F 41% 29.98 in 6.2 mi ESE 5.8 mph - N/A   Partly Cloudy
4:20 PM 73.4 °F 51.8 °F 47% 29.98 in 6.2 mi ESE 4.6 mph - N/A   Partly Cloudy
4:50 PM 69.8 °F 51.8 °F 53% 29.98 in 6.2 mi ESE 6.9 mph - N/A   Partly Cloudy
5:20 PM 69.8 °F 51.8 °F 53% 29.98 in 6.2 mi ESE 5.8 mph - N/A   Partly Cloudy
5:50 PM 68.0 °F 51.8 °F 56% 29.98 in 6.2 mi ESE 4.6 mph - N/A   Partly Cloudy
6:20 PM 66.2 °F 51.8 °F 60% 30.01 in 6.2 mi SE 3.5 mph - N/A   Partly Cloudy
6:50 PM 64.4 °F 51.8 °F 64% 30.01 in 6.2 mi Variable 2.3 mph - N/A   Partly Cloudy
7:20 PM 64.4 °F 51.8 °F 64% 30.01 in 6.2 mi Variable 2.3 mph - N/A   Partly Cloudy
7:50 PM 64.4 °F 51.8 °F 64% 30.01 in 6.2 mi Variable 2.3 mph - N/A   Partly Cloudy
8:20 PM 64.4 °F 51.8 °F 64% 30.01 in 6.2 mi Variable 2.3 mph - N/A   Partly Cloudy
8:50 PM 62.6 °F 51.8 °F 68% 30.04 in 6.2 mi Variable 2.3 mph - N/A   Partly Cloudy
9:20 PM 62.6 °F 51.8 °F 68% 30.04 in 6.2 mi NE 5.8 mph - N/A   Partly Cloudy
9:50 PM 64.4 °F 51.8 °F 64% 30.04 in 6.2 mi NNE 4.6 mph - N/A   Partly Cloudy
10:20 PM 64.4 °F 50.0 °F 59% 30.04 in 6.2 mi NE 3.5 mph - N/A   Partly Cloudy
10:50 PM 64.4 °F 51.8 °F 64% 30.04 in 6.2 mi NE 4.6 mph - N/A   Partly Cloudy
11:20 PM 62.6 °F 51.8 °F 68% 30.04 in 6.2 mi NNE 4.6 mph - N/A   Partly Cloudy
11:50 PM 62.6 °F 50.0 °F 63% 30.04 in 6.2 mi NNE 4.6 mph - N/A   Partly Cloudy